This is the latest recevied weather packets stored in our database for station/object N7WSS. If no packets are shown the sender has not sent any weather packets the latest 10 day(s).
| Time | Temp. | Humidity | Pressure | Rain* | Wind** | Luminosity | Snow |
|---|---|---|---|---|---|---|---|
| 1787524970 | 40° C | 25% | 1012.3 hPa | 0 mm | - | - | - |
| 1787524669 | 40° C | 25% | 1012.3 hPa | 0 mm | - | - | - |
| 1787524364 | 41.11° C | 23% | 1012.1 hPa | 0 mm | - | - | - |
| 1787524065 | 40.56° C | 23% | 1012 hPa | 0 mm | - | - | - |
| 1787523761 | 40° C | 23% | 1012 hPa | 0 mm | - | - | - |
| 1787523460 | 40.56° C | 23% | 1012.1 hPa | 0 mm | - | - | - |
| 1787523156 | 40° C | 23% | 1012.3 hPa | 0 mm | - | - | - |
| 1787522851 | 40.56° C | 24% | 1012.3 hPa | 0 mm | - | - | - |
| 1787522548 | 41.11° C | 23% | 1012.4 hPa | 0 mm | - | - | - |
| 1787522248 | 40.56° C | 23% | 1012.7 hPa | 0 mm | - | - | - |
| 1787521943 | 40.56° C | 23% | 1013 hPa | 0 mm | - | - | - |
| 1787521642 | 40.56° C | 24% | 1012.9 hPa | 0 mm | - | - | - |
| 1787521341 | 40° C | 24% | 1013 hPa | 0 mm | - | - | - |
| 1787521036 | 40.56° C | 23% | 1013 hPa | 0 mm | - | - | - |
| 1787520733 | 40.56° C | 23% | 1013 hPa | 0 mm | - | - | - |
| 1787520433 | 40° C | 23% | 1013.1 hPa | 0 mm | - | - | - |
| 1787520130 | 40.56° C | 24% | 1013.3 hPa | 0 mm | - | - | - |
| 1787519825 | 40.56° C | 23% | 1013.3 hPa | 0 mm | - | - | - |
| 1787519519 | 40.56° C | 23% | 1013.3 hPa | 0 mm | - | - | - |
| 1787519214 | 40.56° C | 24% | 1013.5 hPa | 0 mm | - | - | - |
| 1787518910 | 40.56° C | 24% | 1013.8 hPa | 0 mm | - | - | - |
| 1787518605 | 40.56° C | 24% | 1013.7 hPa | 0 mm | - | - | - |
| 1787518300 | 40.56° C | 25% | 1013.9 hPa | 0 mm | - | - | - |
| 1787517996 | 40.56° C | 25% | 1013.8 hPa | 0 mm | - | - | - |
| 1787517692 | 40° C | 25% | 1014 hPa | 0 mm | - | - | - |
* Rain latest hour (hover to see other rain measurements)
** Current wind speed in m/s (hover to see current wind gust speed)